Wind_Speed
45 48 51 47 39 35 38 41 44 45 46 47 47 47 48 48 47 41 39 41 43 49 51 49 50 49 43 36 33 33 33 32 29 30 32 31 30 30 31 32 33 34 33 33 33 33 34 35 36 35 35 35 36 37 37 37 36 35 33 33 33 33 33 33 34 34 35 36 37 38 39 40 42 43 41 40 40 40 40 40 40 41 41 41 41 41
45 49 48 44 39 39 42 43 45 47 48 49 49 49 50 51 49 44 42 42 44 51 53 51 53 52 45 38 33 33 33 31 28 29 29 28 28 28 29 31 33 35 34 33 33 32 33 35 36 36 36 37 38 38 37 36 34 34 33 33 34 35 35 35 36 37 38 38 39 40 41 43 44 43 41 40 40 40 40 41 42 42 42 42 42 41
46 47 43 40 41 42 44 44 46 48 50 52 51 52 54 52 50 48 45 43 47 53 54 53 55 54 48 40 34 31 32 31 28 27 24 23 25 26 29 31 32 35 34 33 34 34 35 36 37 37 36 37 38 37 36 35 34 34 34 35 35 35 36 37 38 38 39 40 41 42 44 45 45 43 41 41 40 40 41 42 43 43 43 42 42 42
49 46 40 40 42 43 44 45 46 49 52 54 53 54 56 52 51 53 49 46 50 55 56 55 58 57 51 44 35 30 31 31 27 26 21 20 23 26 30 32 33 33 33 34 35 36 37 38 38 38 37 37 37 37 36 36 35 35 35 35 34 35 36 37 38 39 40 41 43 44 46 46 45 43 42 42 42 42 42 43 43 44 43 43 42 42
50 45 42 44 43 42 43 44 45 49 52 52 53 54 55 53 52 55 53 51 55 58 56 56 61 60 52 46 38 31 32 31 27 26 22 21 24 26 28 30 32 33 32 33 35 37 38 39 40 40 39 39 38 38 37 37 36 35 35 35 35 35 37 38 39 40 42 43 45 46 46 46 44 43 43 43 44 45 45 45 45 45 44 44 44 44
50 43 42 45 45 43 43 44 44 45 48 51 52 52 52 53 54 54 54 55 58 61 58 57 64 63 54 49 42 35 35 32 29 30 26 23 26 28 29 29 30 32 32 34 36 37 39 40 42 42 41 40 39 39 38 37 37 36 36 36 37 38 39 40 41 42 44 45 45 45 45 44 44 44 44 45 46 47 47 47 47 47 47 47 46 46
50 43 43 45 45 45 46 46 43 41 46 50 50 49 49 52 53 54 54 56 59 62 61 61 65 65 59 53 46 42 40 35 31 31 27 26 27 29 32 31 30 30 32 35 38 39 40 41 42 42 41 40 39 39 38 39 39 39 39 39 40 41 42 43 43 43 44 44 43 43 42 43 43 44 45 46 47 48 49 49 49 49 49 49 49 48
48 45 46 45 45 47 48 46 42 41 47 51 49 48 49 50 51 53 54 57 59 61 63 65 67 67 61 53 48 47 45 40 34 31 29 28 29 29 31 32 33 32 34 37 39 41 41 42 42 42 41 40 39 39 40 41 41 41 42 42 43 44 45 44 44 43 43 43 42 41 41 42 43 44 45 46 47 48 50 51 52 52 52 52 51 50
48 47 48 48 49 49 46 44 43 43 48 50 50 50 50 50 50 51 53 55 58 59 62 65 65 66 61 53 52 52 49 43 36 32 32 31 31 30 30 33 36 36 38 40 40 40 40 41 43 43 42 41 41 41 42 43 43 44 44 45 45 46 47 46 45 44 43 43 42 41 41 41 42 42 44 45 47 50 52 53 54 54 54 53 52 50
49 50 51 51 51 50 46 45 45 46 48 49 49 50 51 52 51 52 53 54 57 59 61 63 62 63 60 54 54 55 51 47 41 36 36 35 35 33 31 32 35 37 41 45 43 39 40 42 44 45 43 42 43 43 44 45 45 46 46 47 48 48 49 48 46 45 45 43 42 42 41 40 40 41 42 44 46 50 53 54 54 54 54 53 52 50
49 51 52 53 52 50 48 48 48 48 48 48 49 51 52 53 53 54 56 56 58 61 60 60 59 60 59 55 54 55 53 51 47 42 40 39 38 33 29 29 32 35 40 45 47 44 44 46 47 47 46 45 45 46 46 47 47 48 48 49 50 50 50 49 48 47 46 44 43 42 41 39 39 40 41 44 46 50 53 55 54 53 52 52 51 51
50 52 53 52 52 51 50 50 50 49 48 48 49 51 51 52 54 57 58 58 61 61 59 57 58 58 58 57 57 58 57 54 50 46 43 43 41 33 27 27 28 32 37 41 44 46 48 50 50 50 50 49 49 49 49 49 49 50 50 50 50 51 51 50 49 48 47 45 43 41 40 38 38 39 41 44 46 50 54 56 55 53 53 52 52 52
51 51 52 53 53 51 50 50 50 49 47 48 50 51 50 53 56 59 60 60 60 60 58 58 58 59 58 57 57 57 56 55 54 53 49 47 48 39 29 26 27 28 33 37 41 45 49 52 54 53 52 52 51 51 50 49 49 49 49 50 50 50 51 51 50 49 47 45 43 40 39 38 39 39 41 42 45 48 53 55 55 54 54 54 54 54
51 49 50 53 53 51 51 50 49 48 48 50 51 51 51 54 57 58 59 60 60 58 58 58 60 62 60 58 58 56 55 56 55 56 53 50 53 49 35 27 27 28 33 38 42 46 49 51 54 55 53 52 50 50 48 48 47 48 49 49 50 51 51 51 50 49 47 44 42 41 40 40 39 39 39 40 43 45 49 53 55 54 54 54 55 55
51 50 49 51 51 51 52 50 48 49 51 53 55 55 56 57 58 58 58 60 62 60 59 60 62 63 61 60 61 59 59 58 55 55 54 53 55 54 45 34 28 28 32 36 40 45 48 50 51 52 52 50 49 49 49 49 50 50 50 50 49 50 50 50 50 49 47 46 44 43 43 42 41 40 40 42 44 45 46 49 53 53 53 54 54 54
55 55 53 52 51 50 52 52 52 54 56 56 58 60 60 58 57 58 60 60 62 64 63 63 65 64 62 61 61 60 60 59 58 56 56 57 57 56 51 42 31 26 28 31 36 41 45 47 47 48 49 49 49 50 51 52 53 52 51 50 50 50 49 49 49 50 49 49 48 47 45 44 43 43 44 45 45 45 45 46 49 51 53 54 54 55
61 60 56 55 55 53 53 54 55 57 58 58 60 62 62 61 61 63 64 62 62 65 65 64 66 65 63 62 61 60 58 57 58 58 58 61 61 58 52 42 32 28 28 31 36 40 43 45 46 47 48 49 49 52 54 54 54 54 53 52 51 51 50 49 50 51 52 52 51 49 48 47 47 47 47 46 44 45 45 45 47 50 53 55 56 57
62 62 58 57 59 57 56 58 59 60 63 63 62 60 59 61 62 63 65 64 62 66 67 65 66 67 65 65 64 62 61 60 60 59 60 62 62 60 54 42 34 32 32 35 38 39 41 43 46 47 48 49 49 51 55 56 54 54 54 53 52 52 52 52 52 53 54 53 52 51 51 50 50 49 49 46 44 44 45 46 48 50 54 57 59 60
64 65 62 59 61 62 61 62 64 65 66 66 63 59 57 58 59 60 62 64 63 67 69 67 67 68 67 66 64 63 63 64 64 62 62 63 62 61 58 49 39 34 34 38 39 38 39 42 45 46 47 49 50 50 53 56 54 52 52 53 52 53 53 54 54 55 55 54 53 53 53 53 52 51 49 48 47 47 48 49 50 51 53 56 59 62
69 69 67 63 63 64 63 64 66 66 66 66 65 62 61 60 61 62 64 65 66 69 72 71 70 69 65 62 62 63 64 66 67 66 65 65 63 59 57 54 49 41 36 38 39 39 40 43 44 46 48 50 51 51 52 54 53 51 51 52 52 53 54 55 56 56 56 56 56 56 55 54 52 50 49 49 49 50 51 52 54 54 55 56 59 61
71 72 72 69 67 66 65 65 66 65 66 67 67 67 67 66 67 69 71 70 70 72 74 74 75 70 62 60 60 62 64 67 68 68 66 64 63 60 55 55 56 51 42 39 41 42 44 46 47 48 50 51 53 53 54 54 54 54 54 55 54 54 55 56 57 57 57 58 57 56 55 53 51 51 51 52 53 54 54 55 56 57 58 58 59 61
72 72 72 73 74 73 71 68 67 67 68 69 70 70 70 71 72 74 76 74 72 73 74 74 78 73 61 57 59 59 61 63 63 64 63 61 61 61 56 53 57 59 53 46 44 45 48 50 51 52 52 52 53 55 56 56 56 58 59 59 59 58 57 57 57 58 58 58 57 56 54 53 53 53 54 56 57 57 57 57 58 59 59 60 61 62
74 73 75 79 81 79 75 71 70 69 68 69 71 72 71 72 74 76 78 76 71 71 71 71 76 72 57 49 51 53 56 58 58 58 60 59 59 60 58 55 57 62 62 54 46 46 50 52 54 56 55 54 54 54 57 59 60 62 62 62 62 61 60 59 57 56 56 56 56 55 55 54 55 55 56 57 58 58 59 59 60 60 61 62 63 64
72 75 78 81 81 79 77 74 73 73 72 72 72 69 67 67 68 71 72 69 66 66 67 68 74 73 61 53 52 54 57 61 62 60 60 60 58 57 58 58 59 61 62 58 50 50 55 57 58 59 58 56 54 53 55 59 62 64 65 65 64 64 63 61 58 55 54 54 54 55 54 54 55 56 57 57 58 59 60 61 61 62 63 64 66 67
68 69 70 72 73 72 69 68 68 67 65 64 62 59 58 58 59 60 59 57 60 61 59 63 67 64 59 56 56 57 56 58 61 60 59 58 56 57 59 61 63 66 67 64 60 59 62 62 61 60 58 56 55 54 55 58 62 64 66 66 66 65 64 62 58 56 54 54 54 54 54 54 56 57 57 58 60 61 61 62 63 64 65 66 68 70
69 65 61 61 64 64 62 61 59 55 52 52 52 52 52 52 53 53 52 56 62 60 58 62 64 59 53 50 51 53 51 49 50 51 52 54 57 61 65 66 68 70 70 69 67 67 67 67 64 60 57 55 54 55 55 57 59 61 63 65 65 64 62 61 59 58 57 56 56 55 56 57 58 58 59 60 61 62 62 63 64 66 67 69 70 71
74 73 67 63 64 65 65 63 58 56 57 57 56 54 53 54 55 58 63 68 68 67 69 68 64 62 57 48 45 49 50 50 49 48 50 56 59 63 66 68 69 69 68 68 70 70 70 69 65 59 54 53 53 54 55 56 57 59 60 60 60 60 60 60 60 59 59 58 58 58 58 58 59 59 60 61 62 62 63 64 66 68 70 71 72 72
75 77 73 71 72 71 70 68 63 63 67 66 63 62 61 60 62 67 73 74 71 79 83 72 65 69 67 56 51 50 50 51 49 47 50 54 55 56 59 62 65 65 64 64 66 68 69 68 64 58 55 54 55 56 57 57 58 59 59 57 57 59 60 60 60 60 59 59 60 60 60 60 61 62 62 62 63 63 64 65 67 69 70 71 71 70
82 85 82 80 81 80 78 78 76 77 80 80 79 78 75 74 76 79 82 81 83 91 92 81 78 84 82 76 72 65 58 58 59 60 63 60 56 55 57 58 60 60 60 60 61 63 66 66 64 61 59 57 57 58 59 59 60 60 60 58 58 59 60 61 61 61 61 62 62 62 63 63 64 63 63 63 64 64 65 66 68 68 68 68 67 65
94 97 95 93 95 94 92 91 91 92 93 94 94 94 93 93 95 96 96 95 96 99 98 93 92 93 90 89 89 83 77 78 80 81 80 75 71 68 67 68 68 68 68 68 67 66 65 67 68 66 64 60 58 60 61 61 61 62 61 61 62 62 62 63 63 63 64 64 64 64 64 64 64 63 63 64 64 65 66 66 66 66 66 65 64 62
98 100 101 101 103 104 103 101 100 99 98 98 99 98 98 100 101 103 103 101 100 100 99 96 93 93 93 91 89 87 87 87 88 88 87 85 82 79 76 76 76 76 75 76 76 73 70 71 72 70 66 61 59 62 64 64 64 65 64 64 63 63 64 64 66 67 67 66 64 64 64 63 63 63 64 64 65 66 66 66 65 65 64 63 62 61
95 97 100 100 101 104 106 106 104 102 99 98 99 100 100 102 102 102 101 99 97 96 95 93 92 94 93 88 84 84 83 82 81 83 85 87 86 83 79 76 72 69 70 74 77 77 76 75 73 68 65 64 64 66 67 67 68 68 67 66 64 65 67 68 69 68 66 65 64 64 63 63 63 64 65 65 65 66 66 66 65 63 62 61 61 61
86 88 90 90 92 95 98 99 97 93 88 89 94 97 96 94 92 90 91 93 94 93 92 91 93 93 88 83 80 78 77 76 75 76 77 78 76 73 69 67 64 63 64 68 70 71 71 72 71 70 71 74 77 78 78 77 75 73 71 68 68 70 72 73 72 70 68 67 66 64 64 64 65 66 66 66 66 66 65 64 63 61 60 60 59 59
77 78 78 79 82 82 81 79 79 78 80 85 90 89 84 80 79 78 81 86 87 87 88 89 89 87 84 80 78 75 74 73 71 70 67 64 62 60 59 59 61 61 62 64 65 65 67 71 74 77 79 80 81 82 82 81 79 76 73 73 75 77 78 77 76 73 71 69 67 66 66 67 67 67 67 67 66 65 64 62 60 59 58 58 58 57
72 72 71 70 71 71 68 67 71 77 79 81 82 79 77 77 77 78 82 83 83 83 85 86 86 83 80 77 75 74 72 69 65 61 58 56 58 59 59 60 60 61 63 66 68 69 71 74 77 79 80 80 82 83 83 83 81 80 80 81 82 81 80 78 76 73 70 69 68 68 68 68 68 68 68 67 65 63 60 58 57 57 57 57 57 56
72 72 70 66 65 67 67 68 74 78 77 77 77 75 75 76 77 79 82 82 82 84 86 87 87 84 80 77 75 73 69 66 64 60 58 58 62 64 66 67 68 69 71 74 76 78 78 79 79 79 79 80 82 84 85 85 84 83 82 82 82 80 78 76 73 71 70 70 71 71 69 68 69 68 67 65 62 59 57 56 57 57 57 57 56 55
74 73 71 69 71 72 73 73 76 78 78 80 79 77 76 77 78 81 85 86 86 87 88 88 88 86 82 78 75 71 67 66 67 65 64 66 68 69 71 73 75 75 75 77 79 79 80 79 79 79 79 80 83 85 85 85 84 82 80 79 79 78 75 73 72 72 73 74 74 72 69 69 69 68 66 63 59 57 56 56 57 57 56 55 55 53
82 78 76 79 82 80 77 78 81 83 86 86 84 82 83 84 83 84 86 85 83 81 80 81 82 82 81 78 76 74 72 73 73 69 67 69 69 70 72 73 74 74 75 76 77 77 78 78 78 79 79 79 79 80 81 81 81 80 78 76 74 72 72 73 73 74 76 76 74 72 70 70 70 69 67 62 58 57 57 57 56 56 56 56 55 54
90 89 87 88 89 85 80 81 84 88 89 89 86 85 85 85 84 81 76 73 73 73 74 75 78 80 81 80 79 79 78 77 74 69 66 65 65 66 68 70 71 73 74 74 75 75 75 75 75 75 75 73 72 72 74 75 75 74 73 72 71 73 74 74 74 74 75 74 72 71 71 71 72 71 67 61 58 57 57 56 56 56 57 57 56 56
92 94 94 94 95 94 91 91 94 95 95 94 91 89 86 81 77 74 72 74 76 77 77 78 81 83 83 82 82 81 79 78 76 74 72 71 69 68 66 64 64 67 68 69 71 71 71 71 70 68 67 66 65 66 69 71 71 71 72 73 75 75 74 72 72 72 72 72 72 72 72 72 73 71 67 62 59 58 57 57 57 58 57 57 57 58
92 93 94 95 95 94 92 91 88 84 81 80 79 77 75 71 69 71 77 82 84 84 85 87 87 87 86 86 87 85 83 83 83 82 81 81 79 77 72 69 68 68 69 68 68 68 68 68 66 63 62 62 62 64 67 69 70 71 73 73 73 72 72 71 70 70 71 71 73 73 73 73 73 72 70 66 63 61 60 59 59 59 58 58 57 57
90 91 92 92 91 90 90 88 84 77 72 69 70 73 75 76 79 85 89 91 92 93 95 96 95 92 90 88 87 84 82 82 83 82 81 80 79 77 75 74 74 73 73 72 69 67 66 65 63 62 62 62 63 65 68 70 71 72 72 72 71 72 73 71 70 70 71 72 73 74 74 73 73 73 73 70 66 64 63 62 60 60 59 58 57 56
88 90 91 90 89 89 91 92 91 89 87 83 81 81 80 78 80 84 84 84 86 88 89 89 87 85 85 83 81 79 79 80 80 80 78 76 74 72 70 70 70 70 70 71 70 69 68 66 65 64 64 64 64 65 67 69 70 70 70 71 70 70 69 67 67 68 69 71 72 72 72 73 73 74 74 71 69 68 65 63 62 62 61 59 57 56
83 84 86 88 88 88 89 92 94 95 94 92 91 90 87 85 86 85 83 81 81 80 79 78 77 77 80 83 82 81 81 81 80 79 77 74 73 71 70 70 70 70 71 71 71 71 70 69 69 68 68 67 67 67 66 66 66 65 66 69 70 69 67 64 64 64 65 66 67 68 70 72 74 76 76 75 74 71 66 64 64 64 63 61 59 58
79 78 79 81 84 84 86 90 94 94 94 94 95 97 97 97 97 97 94 92 89 85 83 83 85 86 87 88 87 85 84 83 81 80 78 77 75 74 74 74 74 74 75 74 73 73 73 73 72 72 70 70 70 70 68 67 66 64 63 65 67 66 65 64 63 64 64 64 65 67 70 72 74 75 76 76 75 72 69 68 69 67 65 63 62 61
77 77 77 79 81 82 82 84 84 84 86 89 90 90 90 91 92 93 94 96 96 94 91 91 91 91 89 88 88 86 85 84 82 80 78 77 77 77 77 76 75 75 76 76 76 76 77 76 74 73 72 72 72 72 70 70 69 66 63 62 62 62 63 63 63 62 62 63 65 67 69 71 73 73 75 75 73 72 72 72 71 70 67 66 65 64
73 74 76 79 81 82 84 83 80 78 81 84 84 81 80 82 85 86 87 89 92 94 94 94 92 90 89 89 89 88 85 82 80 80 79 79 80 79 78 77 76 76 77 78 78 78 77 77 76 75 74 73 74 74 73 71 70 67 64 62 62 62 64 65 64 62 61 63 65 67 68 70 70 67 66 68 69 71 72 72 72 71 70 69 67 67
69 70 73 76 77 79 82 83 81 81 83 84 84 83 83 84 86 87 87 88 89 91 92 92 90 86 83 82 82 81 79 78 80 84 86 85 84 83 81 80 80 81 82 82 81 79 77 77 76 76 76 75 75 76 76 74 72 69 67 66 66 66 66 67 66 63 62 64 67 68 70 72 73 69 65 65 66 69 72 72 72 72 72 70 67 65
65 67 69 70 72 75 77 78 78 79 82 84 85 87 89 91 92 92 92 94 95 95 96 97 96 94 91 89 88 89 89 90 92 95 97 96 93 91 91 90 89 89 88 87 85 84 83 81 79 79 79 77 76 77 79 78 76 73 71 70 71 72 71 70 69 67 66 66 68 71 73 75 77 76 72 71 72 74 75 75 75 74 73 72 68 64
60 61 61 63 67 71 72 71 70 73 77 80 81 83 86 89 91 93 95 97 100 101 103 105 105 106 105 105 107 109 111 111 110 110 110 109 107 105 103 101 97 94 91 90 91 91 90 89 89 87 84 81 79 80 80 81 81 80 79 76 75 76 76 74 73 74 72 69 68 71 76 78 79 77 74 72 72 72 73 74 76 76 75 73 70 67
56 56 56 58 63 66 65 64 64 66 71 74 76 78 80 82 85 88 91 94 98 101 104 107 109 110 111 111 112 114 116 118 118 119 119 119 117 114 111 107 103 99 96 96 96 96 97 98 99 96 91 87 85 85 85 84 84 85 86 83 82 82 82 80 79 79 78 75 71 71 75 79 81 80 77 74 70 69 70 72 73 74 73 72 71 69
Wind_Direction
279 276 276 280 289 292 285 281 282 283 283 283 284 285 287 288 289 294 296 294 294 292 291 293 292 291 292 294 293 290 287 286 288 287 285 286 287 286 285 284 283 281 280 279 279 279 280 281 282 283 283 283 282 282 283 283 282 281 281 283 282 279 278 278 279 280 281 283 286 289 292 296 298 297 296 294 293 292 293 292 291 291 291 291 290 288
280 277 279 285 288 285 281 281 282 282 283 283 284 285 286 287 290 292 291 291 291 289 289 290 290 289 290 291 292 291 291 291 290 285 284 286 287 286 283 281 281 281 281 281 282 284 284 284 285 286 286 284 284 284 283 282 279 278 279 280 279 278 277 277 277 279 282 284 287 290 293 296 298 298 296 295 295 295 294 293 292 292 293 292 290 288
280 280 285 288 284 279 278 279 280 281 282 283 284 286 285 287 291 290 290 291 288 286 287 289 288 287 287 287 288 291 292 292 290 286 285 285 283 283 282 280 279 280 283 286 287 288 287 287 287 288 287 286 285 284 282 279 278 277 277 277 277 277 276 276 278 280 282 285 288 291 294 296 298 297 296 296 296 296 294 293 292 293 293 292 291 289
278 281 287 285 281 279 278 277 277 278 279 281 283 284 285 288 291 289 289 289 286 285 286 288 287 285 285 286 287 290 289 287 288 287 286 283 280 280 281 282 282 283 286 287 287 287 286 287 287 287 288 287 285 283 281 279 278 278 277 277 277 277 278 278 280 283 286 288 290 292 294 296 297 296 297 297 296 295 293 292 292 291 291 291 290 288
276 281 284 282 282 282 281 279 277 277 277 279 280 281 284 287 287 287 289 288 285 284 285 287 286 283 284 286 287 288 285 283 284 283 283 282 281 279 278 280 284 286 286 284 283 284 285 286 286 287 287 286 284 282 280 280 279 279 279 279 279 279 279 281 284 287 289 290 291 292 294 295 296 296 297 297 295 293 292 292 290 289 290 290 289 287
275 278 280 280 282 283 282 280 277 277 279 280 278 279 282 283 283 285 286 286 285 284 285 286 284 285 287 286 287 289 283 280 280 278 277 277 276 277 278 279 280 282 283 282 281 282 283 285 286 287 286 285 283 281 280 279 279 279 279 280 280 281 282 284 287 289 290 291 291 292 293 294 295 296 296 295 293 293 292 291 290 289 290 290 290 289
275 278 278 277 279 279 278 277 278 280 280 279 278 279 280 280 281 282 282 283 283 284 285 284 283 285 289 288 290 290 285 279 277 276 276 273 273 276 279 280 279 278 280 281 282 283 283 285 285 284 284 283 281 280 278 278 277 278 278 279 280 282 284 286 288 289 290 291 291 292 292 293 293 294 293 293 293 293 292 291 290 290 290 291 292 291
277 278 276 276 275 274 274 277 280 280 278 277 280 281 279 278 279 279 280 280 281 282 283 282 283 285 290 294 295 291 287 282 280 280 279 276 275 276 277 280 281 282 282 280 281 282 283 283 282 281 281 281 280 279 278 277 277 278 279 280 281 283 284 286 287 288 289 290 289 289 290 290 291 291 292 293 293 292 290 289 289 290 291 292 292 291
277 276 275 275 274 273 275 278 278 276 275 277 278 279 279 280 280 280 280 280 280 280 278 279 282 285 291 298 297 292 289 288 288 287 283 279 277 276 278 282 284 284 283 281 279 280 280 280 279 278 277 278 278 277 277 277 278 278 279 280 281 283 284 285 286 286 287 287 287 286 287 288 288 289 291 291 292 291 289 288 289 290 291 291 291 290
275 275 275 274 273 275 277 277 276 275 276 276 277 278 280 280 281 281 280 279 279 277 276 278 282 286 292 297 293 290 292 293 294 291 287 283 280 280 281 282 282 282 281 281 280 279 277 275 274 274 274 273 273 273 273 274 276 277 278 280 281 282 284 285 285 284 284 284 284 285 285 286 286 288 289 290 291 290 289 288 289 290 290 290 289 287
275 275 274 274 276 276 275 274 274 274 275 276 277 278 279 279 279 278 277 277 276 276 277 280 284 287 290 292 291 291 293 295 295 293 291 288 285 285 286 281 277 275 275 277 280 280 277 273 271 271 271 271 271 271 271 273 274 276 278 279 281 282 283 283 283 283 282 282 283 283 283 283 283 285 286 288 290 290 289 288 289 290 290 289 287 285
275 274 275 275 275 274 273 273 273 273 275 276 276 276 276 276 276 275 275 275 275 278 281 282 285 285 284 285 288 292 294 295 296 296 294 292 288 288 288 282 274 271 271 273 276 277 277 276 274 273 272 272 272 272 274 275 277 278 279 280 281 282 282 282 282 282 282 282 282 282 280 279 280 282 284 285 287 287 288 288 288 289 289 288 286 284
274 275 276 276 274 274 275 274 273 273 274 275 274 274 274 274 273 273 274 275 276 281 284 284 284 282 280 282 286 290 293 296 297 296 295 295 292 289 286 280 275 271 270 271 271 271 272 274 275 275 275 275 275 276 276 277 278 278 279 280 280 281 281 282 282 282 283 283 284 283 282 281 281 282 282 283 284 285 285 286 286 286 286 286 284 283
274 275 277 277 276 276 276 275 274 275 276 275 274 273 272 272 273 273 275 277 280 282 283 282 280 279 282 286 288 290 292 292 293 294 295 295 292 291 288 283 282 277 268 266 266 266 267 269 272 274 276 277 277 277 278 277 277 278 278 278 279 279 280 281 281 282 283 284 285 286 286 285 284 283 283 285 286 284 282 283 284 284 284 283 282 282
276 276 276 276 275 274 273 274 275 277 277 277 277 275 273 272 273 274 277 278 279 279 278 276 275 277 283 287 288 290 290 290 291 292 293 292 290 291 291 293 292 280 268 265 264 264 265 266 269 272 274 276 276 277 277 278 277 277 278 278 278 279 280 281 282 284 285 285 287 288 288 287 286 285 285 286 286 284 279 278 280 281 281 281 280 280
277 276 275 274 273 270 269 271 274 277 277 278 278 276 275 276 277 276 277 276 277 277 275 274 275 277 281 283 285 286 287 290 292 292 291 289 288 289 291 297 296 278 270 270 266 263 263 264 265 268 270 273 276 277 277 277 277 277 277 278 278 279 280 282 283 285 286 286 288 288 288 288 288 287 287 286 285 283 279 276 276 278 279 278 279 279
278 276 273 271 272 271 270 272 274 276 277 276 275 275 278 280 280 277 276 275 274 273 274 275 276 278 280 282 283 283 285 287 288 288 288 286 286 287 289 295 291 279 276 275 269 264 263 263 264 265 268 271 273 275 275 274 274 275 276 277 277 278 280 281 282 283 284 286 286 287 288 289 289 288 288 286 284 282 281 277 275 275 277 278 279 280
276 275 273 272 273 273 273 274 275 276 276 276 276 278 279 279 278 276 274 273 271 271 272 273 275 277 278 281 284 286 287 286 284 284 285 285 287 289 290 291 284 277 279 277 272 268 266 266 267 267 268 269 269 270 271 271 271 272 273 275 276 277 278 279 280 281 283 284 284 286 287 288 288 287 288 288 287 285 283 281 277 276 276 278 279 281
274 274 275 274 274 273 272 274 275 275 277 279 281 280 278 275 275 274 273 272 271 272 273 273 273 273 275 278 283 284 285 285 285 285 285 285 287 289 291 290 282 273 275 277 275 272 269 267 267 267 265 265 264 265 267 269 270 271 271 272 273 275 276 277 278 279 281 281 282 284 286 286 287 288 289 290 290 289 287 285 283 280 279 279 280 281
277 276 276 274 273 273 272 271 272 275 278 280 280 278 275 273 273 272 272 272 273 274 275 274 272 270 272 276 279 280 281 282 282 283 283 285 287 288 289 290 286 277 271 274 277 276 273 270 269 267 264 263 263 263 264 266 268 270 270 270 271 272 274 275 276 277 277 278 280 282 284 285 286 288 290 290 290 290 289 288 286 285 284 283 282 282
282 281 281 279 276 274 273 272 272 274 275 276 275 274 274 273 273 272 271 271 272 273 274 274 272 270 271 274 275 276 277 276 277 279 281 284 286 285 286 289 290 284 275 274 279 279 276 273 271 268 264 263 263 262 262 263 265 267 268 269 269 271 273 274 275 276 277 278 280 282 284 285 287 288 289 289 289 288 289 288 287 286 285 285 285 284
286 286 284 283 281 278 277 277 275 273 273 273 272 272 272 272 272 272 272 271 272 272 273 274 273 271 270 271 273 273 273 273 275 278 280 281 281 281 282 285 289 288 284 281 282 281 279 277 273 269 266 264 263 263 263 263 264 265 267 269 270 271 273 274 275 276 277 278 280 281 283 285 288 289 288 288 287 287 287 287 286 285 285 285 286 285
283 283 282 283 284 284 283 281 279 278 278 276 275 274 274 274 273 273 272 272 272 271 271 271 271 271 269 269 270 268 269 272 274 274 276 276 277 279 281 283 285 287 289 290 288 285 284 281 277 274 271 269 267 266 264 264 264 264 266 268 270 272 273 274 274 274 275 277 279 281 283 286 288 288 287 286 286 286 286 286 285 285 284 284 284 284
279 279 279 281 283 283 283 282 282 282 281 279 278 278 277 275 273 270 269 269 269 268 268 269 270 271 271 268 264 263 266 270 270 270 273 274 275 279 282 283 285 288 291 292 290 288 287 285 280 277 275 274 273 271 266 263 263 263 264 266 269 271 272 272 272 272 274 276 278 280 283 285 285 285 284 285 285 285 285 284 284 283 282 282 282 281
275 275 276 278 278 278 277 276 277 279 279 277 275 272 268 264 262 262 264 266 267 266 266 269 270 272 271 266 261 260 265 269 268 267 271 273 274 278 281 283 285 287 289 288 287 286 286 285 280 276 274 274 274 270 264 261 261 261 262 264 267 269 270 271 271 273 275 277 279 280 282 282 281 282 283 283 283 283 282 282 281 281 280 280 280 280
271 269 269 271 273 271 269 268 269 269 268 268 265 259 255 255 257 261 266 270 270 269 266 267 270 273 271 268 264 262 264 267 266 267 272 274 276 279 281 283 284 286 287 286 284 282 282 281 278 275 273 270 267 263 259 257 257 258 260 262 265 267 268 270 272 274 277 279 280 281 280 280 280 281 282 281 281 280 280 280 279 279 279 279 279 279
266 263 260 260 263 263 263 264 263 262 262 263 262 259 258 260 262 266 271 273 275 276 274 271 272 273 272 270 268 267 267 268 268 268 270 273 276 278 280 282 283 284 285 285 283 280 279 279 277 274 269 262 257 254 253 252 252 254 256 259 262 264 267 270 273 276 279 281 281 281 281 281 282 282 281 280 279 279 278 278 277 278 278 278 278 279
264 262 259 258 259 260 262 263 263 263 265 265 264 264 263 265 266 268 271 273 277 280 279 276 275 277 276 275 272 269 269 269 269 268 268 269 272 275 276 277 279 281 283 285 284 280 277 276 273 269 262 256 253 252 251 250 251 253 255 257 260 262 266 270 274 277 279 280 281 281 282 282 282 282 281 280 279 278 277 277 277 277 278 278 279 279
266 266 265 264 264 264 266 267 267 268 270 270 270 269 268 268 269 270 271 273 276 279 279 278 278 279 279 279 277 274 272 271 272 274 275 274 274 274 275 277 278 279 281 283 285 281 277 274 270 265 258 254 253 254 253 253 254 256 256 258 260 263 266 270 274 277 279 279 281 282 282 282 281 281 279 278 278 277 277 277 277 278 278 279 279 280
268 270 270 270 271 270 270 270 271 271 272 273 273 273 273 273 274 274 275 275 277 279 281 282 282 281 280 282 282 280 279 278 278 278 278 279 280 279 279 279 280 280 278 278 279 279 277 275 271 265 258 254 256 259 259 258 259 260 261 262 263 266 269 273 275 277 278 280 281 281 280 280 279 278 277 277 277 277 277 277 277 277 278 279 281 282
268 270 271 272 274 274 273 273 274 274 275 275 275 275 276 277 276 277 278 279 280 281 282 284 284 284 283 285 286 285 284 283 282 281 281 282 283 283 283 282 281 278 275 274 275 275 275 275 271 264 258 256 259 262 263 264 265 266 266 267 268 271 274 276 277 278 280 281 280 280 280 279 278 277 277 277 277 277 276 276 276 277 279 281 283 285
268 269 270 272 275 275 274 275 276 277 278 278 276 276 277 278 279 280 281 282 283 284 284 285 285 286 287 289 289 288 287 286 286 285 285 285 285 285 284 282 279 275 272 272 273 273 273 273 269 264 261 263 266 269 270 272 273 273 272 272 273 276 279 279 280 281 281 280 280 280 280 279 279 279 279 278 277 276 276 276 277 278 280 282 284 286
270 270 271 272 274 276 275 276 277 279 278 276 275 277 279 280 281 282 282 282 282 284 285 286 287 289 290 291 290 289 288 288 288 287 287 287 286 285 281 277 275 272 271 272 272 272 271 270 269 268 269 272 274 276 276 276 276 275 273 273 276 280 282 283 284 284 282 281 281 281 281 281 281 280 278 276 275 275 275 276 277 279 281 283 285 287
272 273 274 275 276 278 277 277 278 277 274 274 275 278 280 281 282 282 280 280 281 282 284 286 288 289 290 290 289 288 287 287 287 287 287 286 284 280 275 273 273 272 270 268 267 266 267 268 270 271 274 275 276 276 275 275 274 273 271 273 277 280 281 283 284 283 282 281 281 281 281 281 280 277 275 274 274 274 275 276 278 280 283 284 286 286
270 270 270 270 271 273 274 274 275 274 273 276 278 278 279 280 281 281 281 282 283 285 286 287 287 287 287 286 285 285 284 284 283 283 282 282 279 273 269 269 269 267 265 264 264 265 266 268 270 271 272 274 275 275 274 274 273 272 271 274 277 279 280 281 280 279 279 279 279 280 280 278 275 273 272 272 272 273 275 278 280 282 283 283 283 283
266 263 261 260 263 267 269 270 271 273 275 277 278 277 277 277 278 280 282 282 284 286 286 285 284 284 283 282 281 280 280 280 278 276 274 272 268 266 266 266 267 266 265 265 265 266 267 268 268 269 270 271 272 272 273 273 273 273 273 275 278 280 280 279 278 278 278 278 278 278 277 274 272 271 270 270 271 274 277 280 281 281 281 280 280 280
262 259 256 259 264 268 270 270 272 274 274 274 274 274 275 275 276 279 281 282 282 281 280 280 280 280 279 279 278 278 278 278 278 276 273 269 266 267 267 267 267 267 266 266 266 266 266 266 267 268 268 269 270 272 273 273 274 275 275 277 278 279 278 277 278 278 279 278 277 276 273 271 270 269 268 270 272 276 279 281 280 278 278 277 278 279
260 257 257 262 267 269 270 271 272 274 274 274 275 276 275 276 277 278 280 279 278 276 276 278 279 278 278 278 277 276 278 280 280 277 275 273 272 271 269 268 269 268 268 268 268 267 267 267 267 268 269 270 271 272 273 274 275 276 276 277 277 277 278 279 280 281 280 278 276 274 272 270 269 268 269 271 274 279 280 279 276 275 274 275 276 278
257 256 256 261 265 267 269 271 273 274 275 275 275 274 274 276 277 278 276 273 273 275 277 278 278 279 280 280 279 279 279 279 277 275 275 275 275 274 271 270 270 269 269 270 270 271 270 270 269 269 269 270 271 272 273 274 274 275 276 277 277 278 280 281 281 279 278 277 276 274 272 270 268 268 269 272 277 280 278 274 272 271 272 274 276 278
256 256 256 258 261 263 266 270 272 273 274 274 273 274 275 275 275 274 271 270 272 275 276 276 277 279 280 279 280 281 279 277 275 274 275 276 277 276 274 271 269 269 269 270 270 271 271 270 269 269 268 268 268 270 272 273 274 275 277 277 278 279 279 278 277 276 275 275 273 272 270 268 267 267 269 274 279 279 274 269 269 269 271 273 276 278
260 259 258 259 260 261 263 266 268 270 272 272 271 271 271 270 270 270 270 271 272 273 274 274 275 277 277 278 279 279 278 277 277 276 275 276 277 276 274 272 271 271 270 270 270 269 269 268 268 267 267 267 267 268 270 272 273 275 275 275 276 276 275 273 272 272 271 271 270 268 267 266 266 269 273 276 279 276 270 265 265 267 269 272 274 276
264 263 262 262 262 262 261 261 262 263 263 263 263 264 265 267 268 269 269 271 273 273 273 273 273 273 273 275 276 276 277 278 278 278 277 276 275 273 272 271 271 270 269 269 268 267 266 264 264 266 267 268 269 270 269 269 270 270 270 270 271 270 270 270 269 268 268 268 268 268 269 270 271 273 276 278 279 274 266 262 263 265 267 270 272 275
266 266 266 265 265 265 263 261 260 260 259 260 261 263 265 266 267 268 269 271 272 273 272 272 272 271 271 272 272 272 274 276 278 278 277 276 273 271 270 269 268 267 267 267 266 266 265 264 264 266 269 270 271 271 270 269 267 266 265 266 266 266 267 267 267 267 267 268 268 269 271 273 275 276 278 280 278 271 263 259 261 264 265 268 270 275
266 267 267 267 266 265 264 263 262 261 261 261 261 261 262 262 263 265 267 268 268 268 268 268 269 270 271 272 272 271 272 273 274 275 275 274 273 270 269 268 268 268 267 267 266 266 266 267 267 268 269 270 269 269 268 268 266 265 264 263 263 264 266 268 271 273 273 274 274 274 274 274 274 276 278 278 275 269 262 259 262 263 264 266 268 273
266 266 266 265 264 264 264 264 264 264 264 263 263 263 263 263 263 264 264 264 264 264 264 265 267 269 270 271 271 271 270 270 270 270 271 271 271 269 268 268 268 268 268 267 267 267 268 269 270 269 269 269 269 268 266 264 263 264 263 262 262 263 266 270 274 275 276 277 276 275 274 274 274 275 275 274 271 266 262 261 262 262 262 264 268 273
264 264 263 263 262 262 262 263 264 264 263 264 264 265 264 264 264 263 263 263 263 263 264 266 267 268 268 268 267 267 267 266 266 266 266 267 267 268 268 269 269 268 267 267 267 268 269 269 269 269 268 269 269 268 265 261 260 260 259 258 261 263 266 268 271 272 274 275 275 275 276 276 275 274 271 268 266 263 260 260 261 260 261 264 268 271
263 263 262 262 262 262 261 261 260 259 260 262 262 261 261 261 261 261 261 262 262 262 263 264 264 264 263 262 262 262 262 262 263 264 265 266 266 266 267 268 267 267 267 268 269 269 269 268 268 268 268 268 268 267 264 260 258 257 255 255 258 262 264 266 268 270 274 275 276 277 276 274 271 268 264 261 260 259 258 258 259 260 262 265 268 272
265 263 262 262 263 263 263 263 262 260 260 261 260 258 256 256 257 258 258 259 260 259 259 260 259 258 257 255 255 256 257 258 261 264 265 267 267 266 265 265 265 266 267 268 269 270 269 268 267 267 266 265 265 264 262 260 257 255 253 254 257 260 263 264 265 268 273 276 276 276 274 270 266 262 257 255 255 256 256 258 259 261 262 265 269 274
271 268 267 266 265 264 263 264 265 264 262 261 261 260 258 256 257 257 257 257 258 257 257 257 257 257 256 255 255 255 256 257 259 262 264 265 265 266 266 266 267 267 267 268 268 269 270 269 268 266 264 262 261 260 259 259 258 256 253 254 257 260 262 263 262 263 268 273 274 273 271 269 265 260 255 254 255 256 257 258 260 261 262 264 268 274
277 276 275 274 272 270 268 268 268 268 266 263 261 261 261 260 260 259 258 258 258 257 258 258 258 257 257 257 257 258 259 259 260 261 263 264 264 264 265 266 267 266 266 266 267 269 270 270 270 269 265 261 258 257 257 259 260 260 257 255 256 259 260 261 261 261 265 270 273 271 268 267 265 261 256 254 255 257 257 258 259 260 262 265 269 274
282 283 282 280 279 277 276 275 275 274 271 268 265 264 264 264 263 262 260 259 258 258 259 259 259 259 259 259 259 259 260 260 261 262 263 263 264 265 264 264 263 262 262 263 265 267 269 270 271 270 266 261 258 256 257 259 261 261 259 257 257 258 259 260 260 260 262 267 271 270 267 266 265 263 259 257 257 260 262 263 263 264 265 269 273 278
Height
5814 5810 5808 5813 5820 5821 5817 5812 5809 5808 5806 5804 5804 5802 5801 5799 5799 5805 5807 5803 5799 5791 5788 5791 5788 5787 5792 5796 5798 5798 5798 5799 5799 5798 5796 5796 5796 5795 5793 5791 5790 5788 5789 5790 5789 5789 5788 5787 5787 5787 5787 5786 5786 5785 5785 5784 5784 5783 5783 5782 5781 5780 5780 5780 5779 5778 5778 5778 5777 5776 5776 5775 5774 5774 5773 5773 5772 5771 5770 5769 5768 5767 5766 5766 5765 5764
5809 5804 5806 5812 5816 5814 5810 5808 5807 5804 5802 5800 5799 5798 5797 5795 5796 5800 5801 5800 5796 5786 5783 5785 5781 5780 5786 5791 5793 5793 5792 5794 5796 5794 5793 5793 5792 5791 5789 5788 5786 5784 5785 5785 5785 5785 5784 5782 5782 5782 5782 5781 5780 5780 5780 5779 5779 5778 5778 5777 5777 5776 5776 5775 5774 5774 5773 5773 5772 5772 5771 5770 5769 5769 5768 5767 5766 5766 5765 5764 5763 5762 5761 5761 5760 5759
5801 5800 5806 5809 5808 5806 5805 5805 5803 5800 5797 5795 5795 5794 5790 5791 5793 5793 5795 5796 5790 5781 5778 5779 5775 5773 5779 5785 5788 5789 5788 5789 5790 5790 5791 5790 5788 5786 5785 5784 5783 5781 5781 5781 5780 5780 5778 5778 5777 5777 5777 5776 5775 5774 5774 5774 5773 5773 5773 5772 5772 5771 5771 5770 5770 5769 5769 5768 5767 5767 5766 5765 5764 5763 5762 5761 5761 5760 5759 5758 5758 5757 5756 5755 5754 5754
5794 5797 5803 5803 5800 5801 5800 5800 5798 5795 5793 5791 5791 5788 5784 5788 5788 5784 5787 5789 5783 5776 5774 5773 5767 5765 5771 5777 5782 5786 5784 5784 5785 5786 5787 5787 5785 5783 5780 5780 5779 5778 5778 5777 5776 5775 5773 5773 5772 5772 5771 5771 5770 5769 5768 5768 5768 5768 5767 5767 5767 5766 5765 5765 5764 5764 5763 5763 5762 5761 5760 5759 5758 5757 5756 5756 5755 5754 5753 5753 5752 5751 5750 5750 5749 5748
5790 5795 5797 5795 5795 5796 5795 5794 5793 5790 5789 5788 5787 5785 5782 5784 5783 5778 5779 5779 5774 5770 5770 5769 5758 5754 5765 5770 5775 5782 5780 5779 5781 5781 5783 5783 5780 5778 5777 5777 5775 5774 5774 5773 5772 5770 5769 5767 5766 5766 5766 5765 5764 5764 5763 5763 5763 5763 5762 5762 5761 5761 5760 5759 5759 5758 5758 5757 5756 5756 5755 5754 5753 5752 5751 5750 5749 5748 5747 5747 5746 5745 5745 5744 5743 5742
5786 5793 5793 5789 5789 5790 5789 5788 5787 5786 5785 5783 5782 5782 5781 5780 5778 5775 5774 5771 5766 5761 5764 5765 5751 5743 5755 5763 5768 5775 5775 5775 5777 5776 5778 5779 5776 5774 5773 5773 5772 5771 5769 5768 5767 5765 5764 5763 5761 5760 5760 5759 5759 5758 5758 5758 5757 5757 5757 5756 5755 5755 5754 5753 5753 5753 5753 5752 5751 5751 5750 5748 5747 5746 5745 5744 5743 5742 5741 5740 5739 5739 5739 5738 5737 5736
5782 5789 5788 5785 5784 5783 5781 5780 5783 5783 5780 5776 5775 5778 5779 5775 5774 5772 5770 5767 5761 5756 5756 5756 5748 5739 5743 5752 5761 5766 5767 5770 5772 5772 5773 5774 5772 5770 5768 5767 5767 5767 5765 5763 5761 5760 5759 5757 5756 5755 5754 5754 5754 5753 5753 5752 5752 5751 5751 5750 5750 5749 5748 5748 5748 5748 5747 5747 5746 5745 5744 5743 5742 5741 5740 5738 5737 5736 5735 5734 5733 5733 5732 5731 5731 5730
5779 5782 5780 5779 5779 5776 5775 5776 5779 5778 5773 5770 5771 5772 5771 5770 5769 5768 5766 5763 5758 5755 5750 5745 5744 5739 5734 5742 5753 5756 5757 5762 5766 5768 5769 5769 5768 5767 5765 5763 5761 5761 5760 5758 5756 5754 5753 5752 5750 5749 5748 5749 5748 5748 5747 5747 5746 5746 5745 5745 5744 5744 5743 5743 5742 5742 5742 5742 5741 5741 5740 5739 5738 5736 5735 5733 5732 5731 5729 5728 5727 5727 5726 5725 5724 5723
5775 5774 5773 5772 5771 5770 5771 5773 5773 5770 5767 5766 5766 5764 5764 5764 5763 5762 5761 5758 5755 5752 5745 5739 5742 5740 5730 5734 5743 5743 5745 5752 5759 5763 5764 5763 5763 5762 5762 5760 5757 5756 5753 5752 5751 5749 5748 5746 5743 5742 5743 5743 5742 5742 5741 5741 5741 5740 5740 5739 5739 5738 5737 5737 5737 5736 5736 5736 5736 5736 5735 5734 5733 5731 5730 5729 5727 5725 5724 5723 5722 5721 5720 5719 5718 5717
5769 5768 5766 5765 5763 5765 5767 5766 5765 5764 5762 5761 5761 5759 5758 5757 5756 5757 5754 5753 5751 5745 5738 5737 5742 5742 5731 5727 5732 5732 5735 5743 5749 5755 5756 5756 5757 5758 5759 5757 5753 5751 5748 5744 5743 5744 5743 5740 5738 5737 5737 5737 5736 5736 5735 5735 5735 5734 5734 5734 5733 5732 5731 5731 5731 5731 5731 5731 5731 5731 5730 5729 5728 5727 5725 5724 5722 5720 5718 5717 5716 5715 5714 5713 5712 5711
5764 5762 5760 5759 5759 5760 5760 5759 5758 5757 5756 5756 5756 5754 5752 5751 5749 5749 5746 5746 5744 5736 5736 5738 5740 5743 5731 5719 5722 5725 5729 5734 5739 5744 5747 5747 5749 5752 5754 5752 5749 5747 5743 5739 5736 5736 5735 5733 5732 5731 5731 5731 5730 5730 5730 5729 5729 5728 5728 5727 5726 5725 5725 5725 5724 5724 5724 5725 5725 5725 5725 5724 5723 5722 5721 5719 5717 5714 5712 5711 5711 5710 5708 5707 5706 5705
5757 5754 5754 5755 5755 5754 5753 5753 5752 5752 5751 5751 5750 5747 5746 5745 5742 5740 5738 5739 5736 5730 5734 5738 5738 5739 5727 5714 5717 5721 5722 5726 5729 5733 5737 5737 5739 5745 5748 5746 5744 5742 5739 5736 5732 5729 5727 5725 5725 5725 5724 5725 5725 5725 5724 5724 5723 5722 5721 5720 5719 5719 5718 5718 5718 5717 5718 5718 5719 5719 5719 5718 5718 5717 5715 5714 5712 5709 5707 5705 5705 5704 5703 5702 5700 5699
5749 5749 5749 5747 5748 5749 5748 5748 5746 5746 5747 5745 5743 5741 5739 5737 5734 5732 5731 5731 5730 5729 5731 5733 5733 5728 5717 5713 5719 5720 5719 5721 5722 5723 5728 5729 5728 5734 5742 5740 5739 5738 5735 5732 5729 5725 5723 5719 5718 5718 5718 5719 5718 5719 5719 5718 5717 5716 5715 5714 5713 5712 5711 5711 5711 5710 5711 5712 5712 5713 5713 5712 5712 5711 5710 5708 5707 5705 5702 5700 5699 5699 5697 5696 5695 5693
5741 5744 5744 5741 5742 5744 5742 5741 5741 5741 5741 5739 5737 5736 5734 5731 5726 5723 5726 5725 5724 5726 5727 5727 5724 5716 5710 5712 5716 5717 5719 5719 5718 5717 5719 5722 5718 5721 5731 5734 5733 5733 5730 5727 5723 5720 5718 5716 5713 5712 5712 5712 5712 5712 5711 5711 5711 5710 5709 5708 5707 5706 5705 5704 5704 5704 5705 5705 5705 5706 5706 5706 5705 5705 5704 5702 5701 5700 5698 5695 5694 5693 5692 5690 5689 5687
5734 5737 5740 5737 5736 5738 5735 5734 5735 5734 5734 5732 5732 5730 5727 5726 5722 5718 5721 5720 5717 5718 5719 5717 5712 5708 5709 5711 5711 5712 5713 5713 5715 5715 5714 5713 5711 5710 5717 5724 5727 5725 5723 5720 5718 5715 5713 5711 5710 5707 5706 5705 5705 5705 5704 5703 5703 5703 5702 5702 5701 5700 5699 5699 5698 5698 5698 5698 5699 5699 5699 5699 5698 5698 5697 5696 5695 5694 5692 5690 5688 5686 5685 5684 5682 5681
5726 5729 5735 5731 5728 5732 5729 5728 5729 5726 5726 5727 5725 5721 5719 5721 5719 5714 5714 5714 5711 5708 5709 5707 5701 5702 5706 5707 5707 5707 5706 5707 5708 5709 5707 5704 5703 5704 5707 5714 5717 5717 5716 5714 5712 5710 5707 5706 5705 5703 5701 5699 5698 5697 5696 5695 5694 5695 5694 5694 5694 5693 5693 5693 5692 5691 5691 5691 5691 5692 5692 5691 5691 5690 5690 5689 5688 5686 5685 5683 5681 5679 5678 5677 5676 5674
5717 5719 5728 5724 5720 5724 5722 5722 5722 5718 5718 5719 5716 5714 5715 5715 5712 5707 5703 5706 5706 5698 5699 5701 5695 5695 5700 5699 5701 5702 5702 5704 5702 5701 5700 5695 5694 5697 5702 5707 5709 5709 5709 5707 5705 5703 5701 5699 5698 5697 5696 5695 5693 5690 5688 5688 5687 5687 5687 5687 5687 5687 5686 5686 5686 5685 5684 5684 5684 5684 5684 5683 5683 5683 5683 5682 5680 5678 5677 5676 5674 5672 5671 5670 5668 5667
5708 5706 5716 5719 5714 5715 5715 5713 5712 5711 5709 5707 5708 5711 5711 5706 5703 5699 5692 5694 5696 5688 5689 5696 5692 5690 5694 5693 5693 5695 5696 5697 5695 5695 5693 5688 5688 5689 5693 5700 5702 5702 5701 5699 5697 5695 5694 5693 5692 5691 5690 5689 5688 5685 5682 5681 5681 5681 5681 5681 5680 5680 5680 5680 5679 5679 5678 5677 5677 5676 5676 5676 5675 5675 5674 5673 5672 5670 5669 5668 5666 5665 5664 5662 5661 5660
5701 5695 5703 5712 5708 5706 5708 5706 5703 5702 5700 5697 5700 5704 5702 5697 5695 5692 5685 5682 5684 5679 5678 5686 5688 5686 5689 5690 5691 5690 5690 5688 5686 5687 5685 5682 5684 5684 5684 5689 5693 5695 5694 5691 5689 5688 5687 5687 5685 5684 5683 5681 5680 5679 5677 5675 5675 5676 5675 5674 5674 5674 5673 5673 5672 5672 5671 5670 5670 5669 5668 5668 5668 5667 5665 5664 5663 5662 5661 5659 5658 5657 5656 5655 5653 5652
5692 5685 5687 5699 5700 5696 5698 5699 5695 5695 5693 5690 5691 5692 5691 5691 5687 5682 5677 5674 5675 5670 5666 5671 5675 5679 5687 5690 5689 5687 5685 5682 5679 5678 5678 5676 5678 5679 5678 5677 5680 5685 5687 5684 5682 5682 5680 5679 5678 5676 5675 5674 5673 5672 5672 5671 5669 5669 5668 5668 5668 5667 5666 5666 5665 5665 5664 5663 5662 5661 5661 5660 5659 5658 5657 5655 5654 5653 5652 5651 5650 5649 5648 5647 5645 5644
5680 5673 5672 5682 5687 5684 5686 5690 5689 5688 5686 5682 5680 5681 5682 5682 5677 5671 5667 5667 5668 5662 5656 5656 5655 5667 5687 5689 5684 5683 5679 5675 5672 5671 5672 5673 5671 5672 5673 5670 5667 5670 5677 5679 5676 5675 5674 5672 5671 5669 5667 5666 5666 5666 5666 5665 5663 5662 5660 5660 5661 5661 5660 5659 5658 5657 5656 5655 5654 5653 5652 5652 5651 5649 5648 5646 5645 5644 5644 5643 5641 5640 5639 5638 5637 5635
5667 5662 5660 5664 5668 5670 5674 5678 5678 5677 5676 5673 5671 5672 5673 5673 5668 5660 5654 5657 5662 5653 5648 5645 5635 5648 5679 5686 5679 5678 5673 5667 5667 5666 5666 5667 5665 5663 5665 5665 5659 5656 5662 5670 5670 5667 5666 5665 5663 5661 5660 5659 5659 5659 5659 5658 5656 5654 5653 5652 5652 5653 5653 5652 5650 5649 5648 5647 5646 5645 5644 5643 5642 5640 5638 5637 5636 5635 5634 5633 5632 5631 5630 5629 5628 5627
5659 5654 5650 5649 5652 5656 5659 5663 5663 5663 5664 5662 5659 5661 5664 5662 5659 5653 5645 5648 5652 5642 5638 5637 5621 5629 5667 5683 5675 5671 5665 5660 5660 5660 5658 5658 5657 5656 5656 5656 5654 5648 5650 5657 5661 5660 5657 5656 5654 5652 5651 5652 5652 5652 5651 5650 5648 5646 5645 5644 5643 5644 5645 5643 5642 5641 5640 5639 5638 5637 5637 5635 5634 5631 5630 5628 5627 5626 5625 5624 5624 5623 5622 5621 5619 5618
5652 5646 5642 5639 5640 5643 5645 5649 5650 5651 5651 5648 5646 5650 5652 5650 5650 5646 5639 5639 5637 5629 5630 5627 5611 5618 5653 5673 5668 5662 5658 5653 5652 5652 5651 5650 5651 5650 5647 5646 5646 5644 5644 5647 5650 5649 5647 5646 5645 5643 5643 5643 5643 5643 5642 5640 5639 5638 5637 5636 5635 5635 5635 5634 5634 5634 5633 5633 5631 5631 5630 5629 5626 5624 5622 5620 5618 5617 5617 5616 5615 5614 5613 5612 5610 5609
5645 5639 5635 5632 5631 5632 5634 5638 5640 5642 5641 5637 5637 5640 5640 5640 5640 5635 5632 5629 5620 5618 5624 5617 5603 5613 5641 5655 5655 5653 5651 5647 5646 5645 5644 5644 5644 5641 5638 5637 5638 5637 5637 5639 5639 5637 5635 5634 5634 5634 5634 5634 5633 5632 5631 5630 5629 5629 5628 5628 5627 5627 5626 5626 5626 5625 5625 5625 5624 5623 5623 5621 5619 5616 5614 5612 5610 5609 5609 5608 5606 5605 5604 5602 5601 5599
5634 5631 5629 5625 5621 5620 5623 5627 5633 5635 5631 5627 5628 5630 5630 5630 5630 5625 5622 5617 5608 5611 5616 5606 5598 5610 5629 5639 5641 5643 5644 5641 5641 5640 5638 5637 5635 5630 5628 5629 5630 5630 5629 5630 5629 5626 5623 5622 5623 5624 5624 5623 5622 5620 5619 5619 5619 5620 5620 5619 5619 5618 5617 5617 5617 5616 5616 5616 5615 5614 5614 5612 5611 5609 5607 5604 5602 5601 5600 5599 5597 5595 5594 5592 5591 5589
5620 5616 5620 5617 5610 5610 5612 5616 5625 5625 5619 5617 5619 5621 5623 5622 5621 5618 5610 5604 5604 5605 5600 5598 5601 5605 5614 5626 5631 5633 5635 5634 5634 5635 5632 5628 5625 5622 5623 5622 5622 5623 5623 5621 5618 5615 5613 5612 5613 5614 5613 5612 5610 5608 5607 5608 5609 5610 5611 5611 5611 5610 5609 5609 5608 5608 5608 5607 5605 5605 5604 5603 5601 5600 5598 5595 5594 5592 5591 5589 5587 5586 5584 5582 5581 5580
5606 5599 5607 5608 5600 5602 5605 5607 5614 5613 5606 5607 5610 5611 5615 5615 5613 5608 5598 5596 5601 5594 5583 5593 5603 5596 5599 5614 5621 5623 5626 5625 5626 5627 5623 5620 5618 5617 5618 5617 5615 5616 5616 5612 5609 5607 5605 5604 5603 5603 5601 5600 5598 5597 5595 5596 5598 5600 5601 5603 5603 5602 5602 5601 5599 5600 5599 5598 5597 5596 5595 5594 5592 5590 5588 5586 5584 5583 5581 5579 5577 5576 5574 5572 5571 5569
5597 5586 5594 5597 5590 5594 5598 5598 5603 5602 5596 5597 5598 5600 5605 5606 5603 5597 5591 5592 5594 5582 5575 5589 5595 5587 5589 5601 5608 5613 5618 5617 5616 5614 5612 5612 5612 5612 5612 5611 5610 5610 5608 5603 5600 5598 5595 5593 5593 5591 5589 5588 5587 5584 5584 5585 5588 5590 5592 5594 5594 5594 5593 5592 5592 5592 5590 5589 5588 5587 5585 5584 5582 5581 5579 5577 5575 5573 5571 5570 5568 5566 5564 5562 5561 5559
5589 5578 5584 5587 5580 5582 5587 5588 5591 5591 5587 5586 5586 5588 5591 5591 5589 5586 5583 5585 5584 5573 5571 5579 5578 5575 5582 5589 5594 5601 5604 5602 5601 5600 5601 5603 5604 5605 5605 5602 5602 5601 5598 5594 5591 5589 5587 5585 5582 5580 5578 5577 5575 5572 5572 5576 5580 5581 5583 5585 5585 5584 5583 5582 5582 5582 5580 5580 5579 5577 5576 5574 5573 5571 5569 5567 5565 5563 5561 5560 5558 5556 5555 5553 5551 5550
5581 5574 5578 5579 5568 5564 5573 5578 5578 5578 5576 5574 5575 5577 5578 5576 5575 5575 5574 5575 5572 5565 5565 5566 5559 5559 5574 5582 5582 5584 5585 5584 5585 5587 5590 5591 5592 5594 5594 5592 5590 5587 5583 5581 5580 5580 5580 5576 5572 5569 5568 5566 5564 5562 5563 5567 5570 5571 5574 5575 5575 5574 5573 5572 5572 5572 5571 5570 5569 5567 5566 5564 5562 5561 5559 5557 5555 5554 5552 5550 5548 5547 5545 5544 5542 5540
5572 5567 5570 5570 5556 5549 5561 5566 5562 5565 5562 5555 5558 5566 5570 5568 5565 5564 5564 5563 5559 5554 5553 5552 5545 5547 5563 5571 5567 5565 5568 5569 5570 5573 5576 5578 5580 5582 5580 5577 5575 5571 5568 5569 5570 5570 5570 5566 5563 5561 5559 5557 5555 5555 5556 5558 5559 5562 5564 5565 5564 5563 5562 5562 5562 5561 5560 5559 5558 5556 5555 5553 5552 5550 5549 5547 5546 5544 5543 5541 5540 5538 5537 5535 5533 5532
5563 5558 5559 5560 5547 5540 5550 5553 5550 5552 5543 5533 5544 5560 5563 5560 5556 5553 5552 5551 5551 5547 5540 5536 5536 5541 5550 5552 5549 5550 5554 5555 5556 5560 5562 5563 5564 5566 5564 5561 5560 5559 5558 5559 5559 5559 5558 5556 5553 5551 5550 5548 5547 5546 5547 5547 5549 5552 5553 5553 5553 5552 5551 5551 5551 5550 5549 5548 5547 5546 5544 5543 5542 5541 5539 5538 5537 5535 5534 5532 5531 5530 5528 5527 5525 5524
5552 5549 5548 5548 5538 5532 5541 5545 5540 5533 5520 5519 5540 5554 5552 5549 5547 5542 5539 5541 5544 5542 5534 5528 5529 5533 5535 5535 5535 5537 5539 5542 5545 5547 5548 5549 5549 5548 5547 5547 5548 5549 5548 5546 5546 5546 5545 5544 5542 5541 5540 5538 5536 5535 5535 5536 5538 5540 5541 5542 5542 5541 5541 5540 5541 5540 5539 5539 5537 5536 5535 5534 5533 5532 5530 5529 5528 5526 5525 5524 5523 5521 5520 5519 5517 5516
5542 5541 5538 5537 5531 5525 5531 5535 5524 5510 5507 5518 5533 5539 5538 5539 5538 5532 5529 5531 5534 5533 5527 5522 5519 5520 5521 5521 5522 5524 5525 5530 5533 5534 5537 5538 5535 5531 5530 5533 5536 5536 5535 5533 5533 5534 5534 5533 5532 5531 5530 5527 5525 5524 5524 5524 5526 5528 5530 5532 5531 5531 5531 5530 5530 5530 5530 5529 5528 5527 5526 5525 5524 5522 5521 5520 5519 5518 5517 5516 5515 5514 5512 5511 5509 5507
5533 5531 5528 5525 5522 5518 5519 5518 5507 5500 5508 5516 5519 5524 5529 5530 5529 5525 5518 5521 5526 5521 5513 5509 5506 5506 5507 5506 5507 5511 5513 5516 5517 5521 5525 5521 5516 5514 5515 5518 5521 5523 5523 5523 5523 5523 5524 5523 5521 5519 5519 5518 5515 5513 5514 5514 5515 5518 5521 5523 5522 5521 5520 5519 5519 5520 5519 5518 5517 5517 5517 5515 5514 5513 5512 5511 5510 5510 5509 5508 5507 5505 5503 5502 5500 5498
5524 5520 5518 5513 5510 5510 5506 5501 5498 5497 5501 5505 5509 5518 5522 5519 5522 5519 5508 5509 5514 5506 5497 5496 5494 5492 5492 5492 5494 5497 5502 5503 5502 5507 5509 5502 5499 5503 5504 5503 5505 5508 5509 5510 5510 5511 5512 5511 5510 5509 5509 5509 5506 5505 5504 5504 5505 5507 5511 5512 5512 5510 5509 5508 5509 5510 5508 5507 5507 5507 5507 5505 5504 5504 5503 5502 5501 5501 5500 5498 5497 5496 5494 5492 5490 5489
5515 5511 5510 5503 5498 5500 5497 5491 5490 5488 5487 5495 5505 5510 5509 5507 5512 5512 5502 5495 5495 5490 5487 5487 5482 5477 5478 5480 5481 5485 5490 5491 5490 5493 5494 5490 5491 5495 5494 5492 5493 5494 5495 5496 5497 5499 5500 5500 5500 5499 5498 5498 5496 5493 5492 5492 5493 5496 5498 5499 5500 5499 5498 5499 5500 5499 5497 5497 5497 5497 5497 5496 5495 5494 5493 5492 5492 5491 5490 5489 5487 5485 5483 5482 5481 5480
5502 5501 5501 5493 5487 5490 5489 5481 5480 5479 5479 5488 5496 5496 5496 5497 5499 5501 5492 5481 5478 5478 5478 5476 5470 5465 5466 5468 5469 5473 5478 5478 5476 5480 5482 5481 5483 5485 5484 5484 5485 5484 5484 5484 5485 5486 5488 5488 5488 5488 5487 5486 5484 5482 5481 5482 5483 5484 5486 5487 5488 5488 5489 5489 5488 5487 5485 5486 5487 5487 5487 5486 5485 5484 5483 5482 5482 5481 5480 5478 5476 5475 5473 5473 5472 5471
5487 5488 5489 5483 5478 5481 5481 5473 5472 5474 5474 5478 5482 5483 5485 5486 5487 5486 5476 5466 5467 5468 5465 5462 5459 5457 5457 5457 5458 5461 5463 5463 5464 5468 5470 5471 5474 5475 5474 5476 5476 5475 5475 5474 5473 5474 5476 5476 5476 5477 5476 5476 5474 5473 5472 5472 5474 5475 5475 5476 5476 5477 5478 5477 5476 5475 5475 5476 5476 5476 5476 5475 5475 5474 5473 5472 5472 5471 5470 5468 5466 5464 5464 5464 5463 5462
5473 5474 5474 5472 5469 5472 5471 5464 5465 5470 5468 5468 5471 5472 5471 5474 5475 5470 5458 5451 5454 5455 5451 5449 5449 5449 5450 5449 5448 5450 5450 5449 5451 5456 5458 5460 5462 5463 5464 5465 5466 5466 5465 5464 5463 5464 5464 5465 5466 5466 5466 5466 5465 5465 5463 5463 5464 5465 5465 5465 5466 5466 5465 5465 5465 5465 5465 5466 5466 5466 5466 5465 5465 5464 5463 5463 5463 5462 5460 5458 5456 5454 5454 5454 5454 5453
5457 5456 5457 5458 5458 5458 5457 5452 5454 5459 5457 5456 5459 5459 5459 5461 5458 5449 5442 5441 5441 5439 5437 5438 5438 5440 5441 5440 5439 5440 5440 5439 5439 5441 5444 5446 5448 5450 5452 5452 5453 5454 5454 5454 5454 5453 5453 5454 5456 5455 5456 5456 5456 5455 5454 5453 5454 5456 5456 5457 5457 5455 5454 5455 5455 5456 5456 5455 5456 5456 5456 5456 5455 5454 5453 5453 5453 5452 5449 5446 5445 5445 5445 5444 5444 5443
5443 5440 5441 5445 5445 5442 5440 5439 5439 5440 5441 5445 5448 5447 5448 5447 5439 5432 5433 5434 5429 5424 5423 5425 5427 5428 5428 5429 5430 5431 5430 5431 5430 5429 5430 5431 5433 5436 5438 5439 5440 5441 5442 5443 5443 5443 5442 5443 5446 5446 5446 5446 5446 5445 5444 5443 5444 5445 5447 5448 5448 5446 5446 5446 5445 5445 5445 5445 5445 5446 5446 5446 5445 5444 5443 5443 5443 5441 5438 5436 5435 5435 5435 5435 5434 5434
5431 5430 5427 5429 5429 5425 5420 5420 5422 5424 5428 5434 5435 5433 5433 5431 5425 5422 5424 5423 5418 5415 5414 5416 5418 5418 5416 5416 5419 5420 5420 5420 5419 5418 5419 5420 5420 5422 5424 5426 5428 5429 5430 5431 5432 5431 5430 5431 5434 5436 5435 5435 5434 5435 5435 5434 5433 5435 5437 5437 5437 5436 5436 5435 5434 5434 5434 5434 5434 5435 5436 5435 5434 5433 5433 5433 5432 5430 5428 5427 5426 5426 5425 5425 5424 5424
5417 5420 5416 5411 5411 5410 5404 5403 5409 5413 5415 5418 5418 5418 5417 5414 5410 5410 5410 5408 5407 5407 5408 5408 5408 5407 5406 5404 5405 5407 5408 5407 5407 5407 5408 5408 5410 5411 5411 5413 5415 5416 5417 5419 5420 5420 5419 5420 5422 5424 5424 5424 5423 5423 5424 5423 5422 5424 5425 5425 5425 5426 5425 5425 5424 5424 5423 5423 5424 5425 5425 5425 5424 5423 5423 5422 5420 5419 5419 5418 5417 5416 5415 5415 5414 5414
5404 5407 5405 5398 5395 5395 5392 5394 5398 5398 5399 5404 5406 5404 5401 5397 5396 5396 5394 5393 5393 5395 5397 5397 5394 5393 5395 5393 5392 5393 5394 5394 5396 5397 5396 5396 5397 5399 5399 5400 5402 5404 5405 5406 5408 5409 5408 5409 5410 5412 5413 5414 5414 5413 5413 5412 5411 5412 5413 5413 5414 5415 5415 5415 5415 5415 5414 5414 5414 5415 5415 5414 5414 5413 5412 5411 5409 5408 5408 5407 5407 5406 5405 5404 5404 5403
5395 5395 5390 5385 5383 5380 5380 5386 5389 5384 5384 5393 5397 5394 5389 5383 5381 5382 5381 5380 5380 5381 5381 5380 5378 5380 5383 5381 5378 5378 5380 5382 5383 5384 5385 5385 5385 5386 5388 5388 5389 5392 5393 5394 5395 5396 5396 5397 5399 5400 5402 5403 5404 5403 5401 5401 5401 5400 5401 5401 5402 5403 5403 5404 5404 5405 5405 5404 5404 5405 5405 5405 5404 5403 5402 5401 5399 5398 5397 5396 5396 5395 5395 5394 5394 5393
5384 5383 5377 5374 5373 5369 5367 5372 5376 5373 5374 5380 5383 5381 5378 5371 5367 5369 5370 5368 5367 5365 5363 5363 5363 5366 5368 5367 5365 5363 5366 5369 5369 5368 5369 5372 5373 5374 5376 5377 5378 5380 5381 5381 5382 5382 5383 5385 5387 5388 5389 5391 5392 5391 5389 5389 5390 5389 5388 5389 5390 5390 5391 5392 5393 5393 5394 5394 5394 5394 5394 5394 5394 5393 5391 5390 5389 5388 5387 5386 5386 5385 5385 5385 5385 5384
5368 5368 5366 5364 5360 5357 5359 5362 5363 5360 5361 5366 5367 5365 5360 5356 5355 5357 5358 5356 5353 5350 5347 5347 5348 5350 5351 5351 5351 5348 5348 5352 5354 5352 5352 5356 5360 5362 5362 5363 5365 5366 5368 5369 5369 5368 5369 5371 5373 5374 5375 5377 5380 5378 5375 5376 5377 5377 5376 5376 5376 5377 5378 5379 5379 5380 5382 5383 5384 5384 5383 5383 5382 5381 5379 5377 5377 5376 5376 5376 5375 5375 5374 5374 5375 5375
5356 5354 5356 5352 5345 5345 5351 5354 5350 5344 5343 5350 5354 5350 5343 5342 5344 5345 5344 5342 5339 5335 5332 5331 5331 5333 5334 5334 5335 5333 5333 5335 5337 5337 5336 5339 5343 5346 5348 5349 5351 5353 5354 5356 5355 5355 5355 5356 5357 5358 5360 5363 5365 5363 5362 5363 5365 5364 5364 5363 5363 5363 5364 5364 5365 5366 5368 5370 5372 5372 5372 5372 5370 5369 5367 5366 5366 5366 5365 5364 5364 5364 5363 5364 5364 5364
5347 5344 5345 5341 5335 5336 5340 5340 5336 5331 5329 5335 5340 5335 5329 5327 5327 5327 5327 5326 5323 5321 5319 5316 5314 5315 5316 5318 5320 5320 5319 5319 5321 5321 5321 5322 5325 5328 5330 5334 5336 5338 5340 5342 5341 5341 5342 5342 5341 5341 5343 5347 5349 5348 5348 5350 5352 5351 5351 5350 5349 5349 5349 5350 5351 5352 5354 5356 5358 5359 5360 5360 5359 5359 5357 5356 5356 5355 5354 5353 5353 5352 5353 5353 5353 5353